| time (UTC) | temp F | wind direction | speed knots | gust knots | rain 1hr in | rain 24hr in | rain mn in | humidity % | barometer mb |
| 20260509124030 | 70 | 0 | 0.9 | 3.5 | 0.00 | 0.01 | 0.00 | 90 | 1011.1 |
| 20260509123531 | 70 | 321 | 0.9 | 3.5 | 0.00 | 0.01 | 0.00 | 90 | 1011.1 |
| 20260509123043 | 69 | 0 | 0.0 | 2.6 | 0.00 | 0.01 | 0.00 | 90 | 1011.1 |
| 20260509122531 | 69 | 320 | 0.0 | 1.7 | 0.00 | 0.01 | 0.00 | 90 | 1011.2 |
| 20260509122031 | 69 | 0 | 0.0 | 2.6 | 0.00 | 0.01 | 0.00 | 90 | 1011.2 |
| 20260509121538 | 69 | 0 | 0.0 | 2.6 | 0.00 | 0.01 | 0.00 | 89 | 1011.1 |
| 20260509121031 | 69 | 297 | 0.0 | 2.6 | 0.00 | 0.01 | 0.00 | 89 | 1011.1 |
| 20260509120530 | 69 | 0 | 0.0 | 4.3 | 0.00 | 0.01 | 0.00 | 89 | 1011.2 |
| 20260509120044 | 69 | 290 | 1.7 | 4.3 | 0.00 | 0.01 | 0.00 | 88 | 1011.3 |
| 20260509115530 | 69 | 319 | 0.9 | 4.3 | 0.00 | 0.01 | 0.00 | 87 | 1011.1 |
| 20260509115031 | 69 | 308 | 0.9 | 8.7 | 0.00 | 0.01 | 0.00 | 87 | 1011.0 |
| 20260509114545 | 69 | 304 | 1.7 | 8.7 | 0.00 | 0.01 | 0.00 | 87 | 1010.9 |
| 20260509114032 | 69 | 300 | 1.7 | 7.8 | 0.00 | 0.01 | 0.00 | 87 | 1010.7 |
| 20260509113531 | 69 | 293 | 1.7 | 4.3 | 0.00 | 0.01 | 0.00 | 88 | 1010.6 |
| 20260509113048 | 69 | 248 | 1.7 | 4.3 | 0.00 | 0.01 | 0.00 | 90 | 1010.3 |
| 20260509112527 | 68 | 0 | 0.0 | 1.7 | 0.00 | 0.01 | 0.00 | 92 | 1010.1 |
| 20260509112031 | 68 | 0 | 0.0 | 1.7 | 0.00 | 0.01 | 0.00 | 92 | 1010.0 |
| 20260509111541 | 68 | 0 | 0.0 | 0.0 | 0.00 | 0.01 | 0.00 | 92 | 1009.9 |
| 20260509111031 | 68 | 0 | 0.0 | 0.0 | 0.00 | 0.01 | 0.00 | 91 | 1009.7 |
| 20260509110534 | 68 | 0 | 0.0 | 0.0 | 0.00 | 0.01 | 0.00 | 91 | 1009.6 |
| 20260509110044 | 68 | 0 | 0.0 | 0.0 | 0.00 | 0.01 | 0.00 | 91 | 1009.6 |
| 20260509105531 | 68 | 0 | 0.0 | 0.0 | 0.00 | 0.01 | 0.00 | 91 | 1009.5 |
| 20260509105031 | 68 | 0 | 0.0 | 0.0 | 0.00 | 0.01 | 0.00 | 91 | 1009.5 |
| 20260509104539 | 68 | 0 | 0.0 | 0.0 | 0.00 | 0.01 | 0.00 | 91 | 1009.5 |
| 20260509104027 | 69 | 0 | 0.0 | 0.0 | 0.00 | 0.01 | 0.00 | 91 | 1009.6 |
| 20260509103530 | 69 | 0 | 0.0 | 0.0 | 0.00 | 0.01 | 0.00 | 90 | 1009.5 |
| 20260509103045 | 69 | 0 | 0.0 | 0.0 | 0.00 | 0.01 | 0.00 | 90 | 1009.4 |
| 20260509102528 | 69 | 0 | 0.0 | 0.0 | 0.00 | 0.01 | 0.00 | 90 | 1009.4 |
| 20260509102031 | 69 | 0 | 0.0 | 0.0 | 0.00 | 0.01 | 0.00 | 90 | 1009.3 |
| 20260509101551 | 69 | 0 | 0.0 | 0.0 | 0.00 | 0.01 | 0.00 | 89 | 1009.4 |
| 20260509101030 | 70 | 0 | 0.0 | 0.0 | 0.00 | 0.01 | 0.00 | 89 | 1009.4 |
| 20260509100527 | 70 | 0 | 0.0 | 0.0 | 0.00 | 0.01 | 0.00 | 89 | 1009.3 |
| 20260509100043 | 70 | 0 | 0.0 | 0.0 | 0.00 | 0.01 | 0.00 | 89 | 1009.4 |
| 20260509095532 | 70 | 0 | 0.0 | 0.0 | 0.00 | 0.01 | 0.00 | 88 | 1009.2 |
| 20260509095031 | 70 | 0 | 0.0 | 0.0 | 0.00 | 0.01 | 0.00 | 88 | 1009.2 |
| 20260509094544 | 71 | 0 | 0.0 | 0.0 | 0.00 | 0.01 | 0.00 | 88 | 1009.1 |
| 20260509094031 | 71 | 0 | 0.0 | 0.0 | 0.00 | 0.01 | 0.00 | 88 | 1009.0 |
| 20260509093532 | 71 | 0 | 0.0 | 0.0 | 0.00 | 0.01 | 0.00 | 88 | 1009.0 |
| 20260509093038 | 71 | 0 | 0.0 | 0.0 | 0.00 | 0.01 | 0.00 | 88 | 1009.1 |
| 20260509092530 | 71 | 0 | 0.0 | 2.6 | 0.00 | 0.01 | 0.00 | 88 | 1009.1 |
| 20260509092031 | 71 | 0 | 0.9 | 4.3 | 0.00 | 0.01 | 0.00 | 88 | 1009.1 |
| 20260509091548 | 71 | 0 | 0.9 | 4.3 | 0.00 | 0.01 | 0.00 | 88 | 1009.3 |
| 20260509091031 | 70 | 286 | 0.0 | 3.5 | 0.00 | 0.01 | 0.00 | 89 | 1009.0 |
| 20260509090528 | 70 | 0 | 0.0 | 3.5 | 0.00 | 0.01 | 0.00 | 89 | 1008.8 |
| 20260509090045 | 70 | 0 | 0.0 | 3.5 | 0.00 | 0.01 | 0.00 | 88 | 1008.0 |
| 20260509085527 | 70 | 226 | 0.9 | 3.5 | 0.00 | 0.02 | 0.00 | 88 | 1008.0 |
| 20260509085027 | 70 | 212 | 0.9 | 5.2 | 0.00 | 0.02 | 0.00 | 88 | 1007.4 |
| 20260509084544 | 70 | 281 | 0.0 | 5.2 | 0.00 | 0.02 | 0.00 | 88 | 1007.4 |
| 20260509084030 | 70 | 172 | 0.9 | 5.2 | 0.00 | 0.02 | 0.00 | 88 | 1007.1 |
| 20260509083532 | 70 | 0 | 0.0 | 0.0 | 0.00 | 0.02 | 0.00 | 88 | 1007.4 |
| 20260509083046 | 71 | 0 | 0.0 | 0.0 | 0.00 | 0.02 | 0.00 | 87 | 1007.8 |
| 20260509082534 | 71 | 0 | 0.0 | 2.6 | 0.00 | 0.02 | 0.00 | 87 | 1008.1 |
| 20260509082031 | 71 | 0 | 0.0 | 2.6 | 0.00 | 0.02 | 0.00 | 87 | 1008.2 |
| 20260509081548 | 71 | 188 | 0.0 | 2.6 | 0.00 | 0.02 | 0.00 | 87 | 1008.5 |
| 20260509081032 | 71 | 0 | 0.0 | 3.5 | 0.00 | 0.02 | 0.00 | 87 | 1008.8 |
| 20260509080531 | 71 | 0 | 0.0 | 3.5 | 0.00 | 0.02 | 0.00 | 87 | 1008.9 |
| 20260509080039 | 71 | 146 | 0.0 | 4.3 | 0.00 | 0.02 | 0.00 | 87 | 1009.3 |
| 20260509075528 | 71 | 0 | 0.0 | 4.3 | 0.00 | 0.02 | 0.00 | 86 | 1009.7 |
| 20260509075034 | 71 | 0 | 0.9 | 4.3 | 0.00 | 0.02 | 0.00 | 87 | 1009.9 |
| 20260509074554 | 71 | 0 | 0.0 | 2.6 | 0.00 | 0.02 | 0.00 | 86 | 1009.8 |
| 20260509074030 | 71 | 0 | 0.0 | 3.5 | 0.00 | 0.02 | 0.00 | 86 | 1010.1 |
| 20260509073534 | 71 | 0 | 0.9 | 3.5 | 0.00 | 0.02 | 0.00 | 86 | 1010.2 |
| 20260509073044 | 71 | 0 | 0.0 | 0.0 | 0.00 | 0.02 | 0.00 | 86 | 1010.6 |
| 20260509072532 | 71 | 0 | 0.0 | 0.0 | 0.00 | 0.02 | 0.00 | 86 | 1010.9 |
| 20260509072030 | 71 | 0 | 0.0 | 0.9 | 0.00 | 0.02 | 0.00 | 86 | 1010.9 |
| 20260509071544 | 71 | 0 | 0.0 | 5.2 | 0.00 | 0.02 | 0.00 | 85 | 1011.1 |
| 20260509071031 | 71 | 0 | 0.0 | 5.2 | 0.00 | 0.02 | 0.00 | 85 | 1011.2 |
| 20260509070531 | 71 | 249 | 0.9 | 5.2 | 0.00 | 0.02 | 0.00 | 85 | 1011.3 |
| 20260509070040 | 71 | 0 | 0.0 | 0.0 | 0.00 | 0.02 | 0.00 | 86 | 1011.5 |
| 20260509065531 | 71 | 0 | 0.0 | 0.0 | 0.00 | 0.02 | 0.00 | 86 | 1011.5 |
| 20260509065031 | 71 | 0 | 0.0 | 0.0 | 0.00 | 0.02 | 0.00 | 86 | 1011.6 |
| 20260509064557 | 71 | 0 | 0.0 | 0.0 | 0.00 | 0.02 | 0.00 | 86 | 1011.4 |
| 20260509064032 | 70 | 0 | 0.0 | 0.0 | 0.00 | 0.02 | 0.00 | 86 | 1011.4 |
| 20260509063530 | 70 | 0 | 0.0 | 0.0 | 0.00 | 0.02 | 0.00 | 86 | 1011.3 |
| 20260509063046 | 70 | 0 | 0.0 | 0.0 | 0.00 | 0.02 | 0.00 | 87 | 1011.2 |
| 20260509062534 | 70 | 0 | 0.0 | 0.0 | 0.00 | 0.02 | 0.00 | 87 | 1011.0 |
| 20260509062035 | 70 | 0 | 0.0 | 0.0 | 0.00 | 0.02 | 0.00 | 86 | 1011.1 |
| 20260509061548 | 70 | 0 | 0.0 | 0.0 | 0.00 | 0.02 | 0.00 | 86 | 1011.2 |
| 20260509061032 | 70 | 0 | 0.0 | 0.0 | 0.00 | 0.02 | 0.00 | 86 | 1011.1 |
| 20260509060527 | 70 | 0 | 0.0 | 0.0 | 0.00 | 0.02 | 0.00 | 85 | 1011.1 |
| 20260509060045 | 70 | 0 | 0.0 | 0.0 | 0.00 | 0.02 | 0.00 | 85 | 1011.1 |
| 20260509055533 | 70 | 0 | 0.0 | 0.0 | 0.00 | 0.02 | 0.00 | 84 | 1011.2 |
| 20260509055031 | 71 | 0 | 0.0 | 0.0 | 0.00 | 0.02 | 0.00 | 83 | 1011.6 |
| 20260509054542 | 71 | 0 | 0.0 | 0.0 | 0.00 | 0.02 | 0.00 | 83 | 1011.6 |
| 20260509054032 | 71 | 0 | 0.0 | 0.0 | 0.00 | 0.02 | 0.00 | 83 | 1011.8 |
| 20260509053531 | 72 | 0 | 0.0 | 0.0 | 0.00 | 0.02 | 0.00 | 82 | 1011.8 |
| 20260509053040 | 72 | 0 | 0.0 | 0.0 | 0.00 | 0.02 | 0.00 | 82 | 1011.8 |
| 20260509052530 | 72 | 0 | 0.0 | 0.0 | 0.00 | 0.02 | 0.00 | 82 | 1012.1 |
| 20260509052031 | 72 | 0 | 0.0 | 0.0 | 0.00 | 0.02 | 0.00 | 82 | 1012.2 |
| 20260509051547 | 71 | 0 | 0.0 | 0.0 | 0.00 | 0.02 | 0.00 | 83 | 1012.5 |
| 20260509051031 | 71 | 0 | 0.0 | 0.0 | 0.00 | 0.02 | 0.00 | 84 | 1012.4 |
| 20260509050534 | 71 | 0 | 0.0 | 0.0 | 0.00 | 0.02 | 0.00 | 83 | 1011.9 |
| 20260509050045 | 71 | 0 | 0.0 | 0.0 | 0.00 | 0.02 | 0.00 | 83 | 1011.2 |
| 20260509045527 | 71 | 0 | 0.0 | 0.0 | 0.00 | 0.02 | 0.02 | 82 | 1011.0 |
| 20260509045027 | 71 | 0 | 0.0 | 0.0 | 0.00 | 0.02 | 0.02 | 82 | 1010.7 |
| 20260509044543 | 71 | 0 | 0.0 | 0.0 | 0.00 | 0.02 | 0.02 | 82 | 1010.8 |
| 20260509044031 | 71 | 0 | 0.0 | 0.0 | 0.00 | 0.02 | 0.02 | 82 | 1010.8 |
| 20260509043532 | 72 | 0 | 0.0 | 0.0 | 0.00 | 0.02 | 0.02 | 81 | 1011.0 |
| 20260509043041 | 72 | 0 | 0.0 | 0.0 | 0.00 | 0.02 | 0.02 | 81 | 1011.2 |
| 20260509042529 | 72 | 0 | 0.0 | 0.0 | 0.00 | 0.02 | 0.02 | 80 | 1011.0 |
| 20260509042034 | 72 | 0 | 0.0 | 0.0 | 0.00 | 0.02 | 0.02 | 80 | 1010.8 |
| 20260509041546 | 72 | 0 | 0.0 | 0.0 | 0.00 | 0.02 | 0.02 | 80 | 1010.8 |
| 20260509041028 | 72 | 0 | 0.0 | 0.0 | 0.00 | 0.02 | 0.02 | 80 | 1010.6 |
| 20260509040533 | 72 | 0 | 0.0 | 0.0 | 0.00 | 0.02 | 0.02 | 79 | 1010.8 |
| 20260509040047 | 72 | 0 | 0.0 | 0.0 | 0.00 | 0.02 | 0.02 | 79 | 1010.7 |
| 20260509035528 | 73 | 0 | 0.0 | 0.0 | 0.00 | 0.02 | 0.02 | 79 | 1010.6 |
| 20260509035033 | 73 | 0 | 0.0 | 0.0 | 0.00 | 0.02 | 0.02 | 79 | 1010.6 |
| 20260509034550 | 73 | 0 | 0.0 | 0.0 | 0.00 | 0.02 | 0.02 | 79 | 1011.2 |
| 20260509034031 | 73 | 0 | 0.0 | 0.0 | 0.00 | 0.02 | 0.02 | 79 | 1011.5 |
| 20260509033528 | 73 | 0 | 0.0 | 0.0 | 0.00 | 0.02 | 0.02 | 79 | 1011.4 |
| 20260509033049 | 73 | 0 | 0.0 | 0.0 | 0.00 | 0.02 | 0.02 | 79 | 1011.3 |
| 20260509032532 | 72 | 0 | 0.0 | 0.0 | 0.00 | 0.02 | 0.02 | 79 | 1011.2 |
| 20260509032032 | 72 | 0 | 0.0 | 0.0 | 0.00 | 0.02 | 0.02 | 79 | 1011.1 |
| 20260509031546 | 72 | 0 | 0.0 | 0.0 | 0.00 | 0.02 | 0.02 | 79 | 1011.0 |
| 20260509031032 | 72 | 0 | 0.0 | 0.0 | 0.00 | 0.02 | 0.02 | 79 | 1010.9 |
| 20260509030530 | 72 | 0 | 0.0 | 0.0 | 0.00 | 0.02 | 0.02 | 80 | 1010.9 |
| 20260509030038 | 72 | 0 | 0.0 | 0.0 | 0.01 | 0.02 | 0.02 | 80 | 1010.9 |
| 20260509025531 | 72 | 0 | 0.0 | 0.0 | 0.01 | 0.02 | 0.02 | 80 | 1010.6 |
| 20260509025031 | 72 | 0 | 0.0 | 0.9 | 0.01 | 0.02 | 0.02 | 80 | 1010.3 |
| 20260509024545 | 72 | 0 | 0.0 | 0.9 | 0.01 | 0.02 | 0.02 | 80 | 1010.1 |
| 20260509024031 | 72 | 0 | 0.0 | 2.6 | 0.01 | 0.02 | 0.02 | 80 | 1010.0 |
| 20260509023528 | 72 | 0 | 0.0 | 2.6 | 0.01 | 0.02 | 0.02 | 80 | 1010.0 |
| 20260509023043 | 72 | 0 | 0.0 | 0.0 | 0.01 | 0.02 | 0.02 | 80 | 1009.9 |
| 20260509022531 | 72 | 0 | 0.0 | 0.0 | 0.01 | 0.02 | 0.02 | 80 | 1009.6 |
| 20260509022031 | 72 | 0 | 0.0 | 0.0 | 0.01 | 0.02 | 0.02 | 80 | 1009.7 |
| 20260509021543 | 72 | 0 | 0.0 | 0.0 | 0.01 | 0.02 | 0.02 | 80 | 1009.6 |
| 20260509021032 | 72 | 0 | 0.0 | 0.0 | 0.01 | 0.02 | 0.02 | 80 | 1009.6 |
| 20260509020527 | 72 | 0 | 0.0 | 0.9 | 0.01 | 0.02 | 0.02 | 80 | 1009.5 |
| 20260509020041 | 72 | 0 | 0.0 | 0.9 | 0.00 | 0.01 | 0.01 | 79 | 1009.5 |
| 20260509015531 | 73 | 141 | 0.0 | 0.0 | 0.00 | 0.01 | 0.01 | 79 | 1009.6 |
| 20260509015028 | 73 | 0 | 0.0 | 0.9 | 0.00 | 0.01 | 0.01 | 78 | 1009.6 |
| 20260509014540 | 74 | 0 | 0.0 | 0.9 | 0.00 | 0.01 | 0.01 | 76 | 1009.5 |
| 20260509014031 | 74 | 0 | 0.0 | 0.9 | 0.00 | 0.01 | 0.01 | 74 | 1009.6 |
| 20260509013531 | 74 | 0 | 0.0 | 0.9 | 0.00 | 0.01 | 0.01 | 73 | 1009.7 |
| 20260509013052 | 74 | 120 | 0.0 | 0.9 | 0.00 | 0.01 | 0.01 | 73 | 1009.6 |
| 20260509012528 | 74 | 0 | 0.0 | 1.7 | 0.00 | 0.01 | 0.01 | 73 | 1009.6 |
| 20260509012028 | 74 | 0 | 0.0 | 1.7 | 0.00 | 0.01 | 0.01 | 72 | 1009.7 |
| 20260509011539 | 74 | 0 | 0.0 | 0.9 | 0.00 | 0.01 | 0.01 | 72 | 1009.6 |
| 20260509011030 | 75 | 0 | 0.0 | 0.0 | 0.00 | 0.01 | 0.01 | 71 | 1009.5 |
| 20260509010532 | 75 | 0 | 0.0 | 0.0 | 0.00 | 0.01 | 0.01 | 71 | 1009.4 |
| 20260509010043 | 75 | 0 | 0.0 | 0.0 | 0.00 | 0.01 | 0.01 | 71 | 1009.2 |
| 20260509005529 | 75 | 0 | 0.0 | 0.9 | 0.00 | 0.01 | 0.01 | 70 | 1009.3 |
| 20260509005027 | 75 | 0 | 0.0 | 2.6 | 0.00 | 0.01 | 0.01 | 70 | 1009.1 |
| 20260509004552 | 76 | 0 | 0.0 | 2.6 | 0.00 | 0.01 | 0.01 | 69 | 1009.0 |
| 20260509004027 | 76 | 0 | 0.0 | 0.0 | 0.00 | 0.01 | 0.01 | 69 | 1008.9 |
| 20260509003530 | 76 | 0 | 0.0 | 0.0 | 0.00 | 0.01 | 0.01 | 69 | 1008.9 |
| 20260509003044 | 76 | 0 | 0.0 | 2.6 | 0.00 | 0.01 | 0.01 | 69 | 1008.9 |
| 20260509002531 | 76 | 0 | 0.0 | 2.6 | 0.00 | 0.01 | 0.01 | 69 | 1008.8 |
| 20260509002032 | 76 | 177 | 0.0 | 2.6 | 0.00 | 0.01 | 0.01 | 68 | 1008.7 |
| 20260509001551 | 76 | 0 | 0.0 | 2.6 | 0.00 | 0.01 | 0.01 | 67 | 1008.8 |
| 20260509001031 | 76 | 0 | 0.0 | 2.6 | 0.00 | 0.01 | 0.01 | 68 | 1008.8 |
| 20260509000531 | 76 | 0 | 0.0 | 3.5 | 0.00 | 0.01 | 0.01 | 67 | 1008.8 |
| 20260509000038 | 76 | 0 | 0.0 | 3.5 | 0.00 | 0.01 | 0.01 | 66 | 1009.0 |
| 20260508235529 | 77 | 234 | 0.0 | 1.7 | 0.00 | 0.01 | 0.01 | 66 | 1009.1 |
| 20260508235031 | 77 | 143 | 0.0 | 1.7 | 0.00 | 0.01 | 0.01 | 65 | 1009.3 |
| 20260508234544 | 77 | 0 | 0.0 | 1.7 | 0.00 | 0.01 | 0.01 | 65 | 1009.3 |
| 20260508234028 | 78 | 0 | 0.0 | 1.7 | 0.00 | 0.01 | 0.01 | 64 | 1009.3 |
| 20260508233528 | 78 | 0 | 0.0 | 1.7 | 0.00 | 0.01 | 0.01 | 63 | 1009.4 |
| 20260508233044 | 78 | 0 | 0.0 | 1.7 | 0.00 | 0.01 | 0.01 | 63 | 1009.4 |
| 20260508232527 | 79 | 140 | 0.0 | 1.7 | 0.00 | 0.01 | 0.01 | 61 | 1009.4 |
| 20260508232028 | 79 | 208 | 0.0 | 1.7 | 0.00 | 0.01 | 0.01 | 60 | 1009.3 |
| 20260508231543 | 79 | 203 | 0.0 | 2.6 | 0.00 | 0.01 | 0.01 | 61 | 1009.4 |
| 20260508231029 | 79 | 191 | 0.0 | 3.5 | 0.00 | 0.01 | 0.01 | 61 | 1009.4 |
| 20260508230531 | 79 | 161 | 0.9 | 3.5 | 0.00 | 0.01 | 0.01 | 60 | 1009.4 |
| 20260508230045 | 79 | 0 | 0.0 | 2.6 | 0.00 | 0.01 | 0.01 | 60 | 1009.5 |
| 20260508225531 | 79 | 0 | 0.9 | 2.6 | 0.00 | 0.01 | 0.01 | 60 | 1009.3 |
| 20260508225031 | 79 | 0 | 0.0 | 2.6 | 0.00 | 0.01 | 0.01 | 61 | 1009.3 |
| 20260508224550 | 79 | 0 | 0.0 | 4.3 | 0.00 | 0.01 | 0.01 | 61 | 1009.4 |
| 20260508224033 | 79 | 0 | 0.9 | 4.3 | 0.00 | 0.01 | 0.01 | 61 | 1009.4 |
| 20260508223534 | 80 | 0 | 0.0 | 7.0 | 0.00 | 0.01 | 0.01 | 61 | 1009.4 |
| 20260508223047 | 80 | 0 | 0.9 | 8.7 | 0.00 | 0.01 | 0.01 | 61 | 1009.4 |
| 20260508222531 | 80 | 172 | 0.0 | 8.7 | 0.00 | 0.01 | 0.01 | 60 | 1009.4 |
| 20260508222031 | 80 | 151 | 1.7 | 8.7 | 0.00 | 0.01 | 0.01 | 59 | 1009.4 |
| 20260508221547 | 80 | 166 | 1.7 | 5.2 | 0.00 | 0.01 | 0.01 | 58 | 1009.4 |
| 20260508221031 | 80 | 160 | 0.9 | 5.2 | 0.00 | 0.01 | 0.01 | 58 | 1009.4 |
| 20260508220530 | 81 | 148 | 0.0 | 4.3 | 0.00 | 0.01 | 0.01 | 59 | 1009.3 |
| 20260508220045 | 80 | 113 | 0.9 | 4.3 | 0.00 | 0.01 | 0.01 | 59 | 1009.2 |
| 20260508215530 | 80 | 212 | 0.0 | 4.3 | 0.00 | 0.01 | 0.01 | 60 | 1009.2 |
| 20260508215031 | 80 | 145 | 0.0 | 4.3 | 0.00 | 0.01 | 0.01 | 59 | 1009.4 |
| 20260508214558 | 80 | 120 | 0.9 | 4.3 | 0.00 | 0.01 | 0.01 | 59 | 1009.4 |
| 20260508214030 | 80 | 120 | 0.0 | 4.3 | 0.00 | 0.01 | 0.01 | 60 | 1009.5 |
| 20260508213530 | 80 | 0 | 0.9 | 4.3 | 0.00 | 0.01 | 0.01 | 59 | 1009.6 |
| 20260508213041 | 79 | 150 | 0.0 | 2.6 | 0.00 | 0.01 | 0.01 | 60 | 1009.6 |
| 20260508212531 | 79 | 186 | 0.9 | 2.6 | 0.00 | 0.01 | 0.01 | 59 | 1009.6 |
| 20260508212031 | 79 | 168 | 0.0 | 3.5 | 0.00 | 0.01 | 0.01 | 60 | 1009.7 |
| 20260508211542 | 78 | 209 | 0.0 | 3.5 | 0.00 | 0.01 | 0.01 | 62 | 1009.6 |
| 20260508211033 | 78 | 113 | 0.9 | 4.3 | 0.00 | 0.01 | 0.01 | 62 | 1009.5 |
| 20260508210530 | 77 | 0 | 0.0 | 4.3 | 0.00 | 0.01 | 0.01 | 64 | 1009.5 |
| 20260508210043 | 77 | 109 | 0.0 | 2.6 | 0.00 | 0.01 | 0.01 | 67 | 1009.6 |
| 20260508205529 | 76 | 0 | 0.0 | 2.6 | 0.00 | 0.01 | 0.01 | 68 | 1010.2 |
| 20260508205030 | 75 | 0 | 0.0 | 2.6 | 0.00 | 0.01 | 0.01 | 70 | 1010.3 |
| 20260508204545 | 74 | 0 | 0.0 | 4.3 | 0.00 | 0.01 | 0.01 | 69 | 1010.6 |
| 20260508204030 | 74 | 220 | 0.0 | 6.1 | 0.00 | 0.01 | 0.01 | 67 | 1011.0 |
| 20260508203531 | 75 | 252 | 0.9 | 6.1 | 0.00 | 0.01 | 0.01 | 64 | 1011.1 |
| 20260508203042 | 75 | 173 | 0.9 | 7.0 | 0.00 | 0.01 | 0.01 | 64 | 1011.5 |
| 20260508202530 | 75 | 229 | 2.6 | 7.0 | 0.00 | 0.01 | 0.01 | 63 | 1011.7 |
| 20260508202030 | 76 | 258 | 1.7 | 6.1 | 0.00 | 0.01 | 0.01 | 63 | 1011.8 |
| 20260508201543 | 76 | 236 | 1.7 | 6.1 | 0.00 | 0.01 | 0.01 | 62 | 1011.7 |
| 20260508201030 | 77 | 237 | 1.7 | 5.2 | 0.00 | 0.01 | 0.01 | 60 | 1011.6 |
| 20260508200530 | 78 | 262 | 0.0 | 3.5 | 0.00 | 0.01 | 0.01 | 60 | 1011.4 |
| 20260508200045 | 78 | 221 | 1.7 | 5.2 | 0.00 | 0.01 | 0.01 | 59 | 1011.7 |
| 20260508195531 | 78 | 0 | 0.0 | 5.2 | 0.00 | 0.01 | 0.01 | 59 | 1011.6 |
| 20260508195031 | 79 | 272 | 0.9 | 5.2 | 0.00 | 0.01 | 0.01 | 58 | 1011.6 |
| 20260508194540 | 79 | 166 | 0.9 | 4.3 | 0.00 | 0.01 | 0.01 | 57 | 1011.5 |
| 20260508194030 | 79 | 0 | 0.0 | 3.5 | 0.00 | 0.01 | 0.01 | 57 | 1011.5 |
| 20260508193530 | 79 | 233 | 0.0 | 3.5 | 0.00 | 0.01 | 0.01 | 58 | 1011.6 |
| 20260508193059 | 79 | 0 | 0.9 | 3.5 | 0.00 | 0.01 | 0.01 | 57 | 1011.6 |
| 20260508192531 | 80 | 0 | 0.0 | 3.5 | 0.00 | 0.01 | 0.01 | 57 | 1011.8 |
| 20260508192033 | 80 | 139 | 0.9 | 3.5 | 0.00 | 0.01 | 0.01 | 56 | 1011.8 |
| 20260508191555 | 80 | 171 | 0.0 | 4.3 | 0.00 | 0.01 | 0.01 | 56 | 1011.9 |
| 20260508191028 | 81 | 0 | 0.0 | 4.3 | 0.00 | 0.01 | 0.01 | 56 | 1011.8 |
| 20260508190529 | 81 | 264 | 0.0 | 3.5 | 0.00 | 0.01 | 0.01 | 55 | 1011.8 |
| 20260508185534 | 82 | 189 | 0.0 | 3.5 | 0.00 | 0.01 | 0.01 | 55 | 1011.8 |
| 20260508185027 | 81 | 0 | 0.0 | 4.3 | 0.00 | 0.01 | 0.01 | 55 | 1011.8 |
| 20260508184544 | 81 | 0 | 1.7 | 4.3 | 0.00 | 0.01 | 0.01 | 56 | 1012.0 |
| 20260508184031 | 80 | 0 | 0.0 | 3.5 | 0.00 | 0.01 | 0.01 | 57 | 1012.0 |
| 20260508183527 | 79 | 150 | 0.9 | 5.2 | 0.00 | 0.01 | 0.01 | 58 | 1012.0 |
| 20260508183056 | 79 | 0 | 1.7 | 6.1 | 0.00 | 0.01 | 0.01 | 56 | 1012.0 |
| 20260508182532 | 79 | 204 | 1.7 | 7.8 | 0.00 | 0.01 | 0.01 | 58 | 1012.2 |
| 20260508182028 | 78 | 250 | 3.5 | 7.8 | 0.00 | 0.01 | 0.01 | 57 | 1012.2 |
| 20260508181544 | 79 | 252 | 0.9 | 5.2 | 0.00 | 0.01 | 0.01 | 56 | 1012.3 |
| 20260508181029 | 79 | 0 | 1.7 | 6.1 | 0.00 | 0.01 | 0.01 | 56 | 1012.5 |
| 20260508180528 | 80 | 162 | 0.9 | 6.1 | 0.00 | 0.01 | 0.01 | 54 | 1012.6 |
| 20260508180058 | 80 | 209 | 0.0 | 4.3 | 0.00 | 0.01 | 0.01 | 55 | 1012.8 |
| 20260508175528 | 81 | 215 | 0.9 | 4.3 | 0.00 | 0.01 | 0.01 | 54 | 1012.9 |
| 20260508175028 | 81 | 0 | 0.9 | 4.3 | 0.00 | 0.01 | 0.01 | 54 | 1012.9 |
| 20260508174600 | 80 | 168 | 0.9 | 4.3 | 0.00 | 0.01 | 0.01 | 54 | 1012.9 |
| 20260508174027 | 80 | 153 | 0.9 | 4.3 | 0.00 | 0.01 | 0.01 | 55 | 1012.8 |
| 20260508173528 | 79 | 169 | 0.0 | 4.3 | 0.00 | 0.01 | 0.01 | 56 | 1012.9 |
| 20260508173043 | 79 | 184 | 0.0 | 5.2 | 0.00 | 0.01 | 0.01 | 57 | 1013.2 |
| 20260508172529 | 78 | 118 | 0.9 | 6.1 | 0.00 | 0.01 | 0.01 | 56 | 1013.1 |
| 20260508172028 | 78 | 130 | 1.7 | 6.1 | 0.00 | 0.01 | 0.01 | 56 | 1013.2 |
| 20260508171541 | 78 | 220 | 0.0 | 6.1 | 0.00 | 0.01 | 0.01 | 55 | 1013.2 |
| 20260508171028 | 78 | 94 | 0.9 | 2.6 | 0.00 | 0.01 | 0.01 | 56 | 1013.4 |
| 20260508170528 | 77 | 0 | 0.0 | 0.9 | 0.00 | 0.01 | 0.01 | 56 | 1013.5 |
| 20260508170044 | 77 | 0 | 0.0 | 0.9 | 0.00 | 0.01 | 0.01 | 58 | 1013.8 |
| 20260508165528 | 76 | 0 | 0.0 | 0.9 | 0.00 | 0.01 | 0.01 | 58 | 1013.9 |
| 20260508165031 | 76 | 0 | 0.0 | 0.0 | 0.00 | 0.01 | 0.01 | 57 | 1014.0 |
| 20260508164546 | 75 | 0 | 0.0 | 0.0 | 0.00 | 0.01 | 0.01 | 58 | 1014.1 |
| 20260508164031 | 75 | 0 | 0.0 | 9.6 | 0.00 | 0.01 | 0.01 | 59 | 1014.2 |
| 20260508163527 | 74 | 0 | 0.0 | 9.6 | 0.00 | 0.01 | 0.01 | 60 | 1014.3 |
| 20260508163044 | 74 | 252 | 2.6 | 9.6 | 0.00 | 0.01 | 0.01 | 59 | 1014.3 |
| 20260508162528 | 74 | 221 | 0.0 | 2.6 | 0.00 | 0.01 | 0.01 | 59 | 1014.5 |
| 20260508162027 | 74 | 0 | 0.0 | 3.5 | 0.00 | 0.01 | 0.01 | 59 | 1014.4 |
| 20260508161544 | 74 | 215 | 0.0 | 3.5 | 0.00 | 0.01 | 0.01 | 60 | 1014.6 |
| 20260508161028 | 73 | 0 | 0.0 | 3.5 | 0.00 | 0.01 | 0.01 | 60 | 1014.6 |
| 20260508160527 | 72 | 0 | 0.0 | 4.3 | 0.00 | 0.01 | 0.01 | 62 | 1014.8 |
| 20260508160043 | 72 | 0 | 0.9 | 4.3 | 0.00 | 0.01 | 0.01 | 62 | 1014.8 |
| 20260508155527 | 71 | 151 | 0.0 | 4.3 | 0.00 | 0.01 | 0.01 | 62 | 1014.9 |
| 20260508155027 | 71 | 138 | 0.0 | 4.3 | 0.00 | 0.01 | 0.01 | 62 | 1014.9 |
| 20260508154542 | 71 | 0 | 0.0 | 1.7 | 0.00 | 0.01 | 0.01 | 62 | 1015.0 |
| 20260508154031 | 71 | 0 | 0.0 | 1.7 | 0.00 | 0.01 | 0.01 | 63 | 1015.0 |
| 20260508153532 | 71 | 120 | 0.0 | 0.9 | 0.00 | 0.01 | 0.01 | 63 | 1015.1 |
| 20260508153045 | 71 | 0 | 0.0 | 0.9 | 0.00 | 0.01 | 0.01 | 62 | 1015.2 |
| 20260508152533 | 71 | 0 | 0.0 | 0.9 | 0.00 | 0.01 | 0.01 | 62 | 1015.2 |
| 20260508152028 | 70 | 0 | 0.0 | 0.9 | 0.00 | 0.01 | 0.01 | 62 | 1015.3 |
| 20260508151546 | 70 | 173 | 0.0 | 1.7 | 0.00 | 0.01 | 0.01 | 62 | 1015.3 |
| 20260508151030 | 70 | 0 | 0.0 | 1.7 | 0.00 | 0.01 | 0.01 | 63 | 1015.3 |
| 20260508150527 | 70 | 120 | 0.0 | 1.7 | 0.00 | 0.01 | 0.01 | 63 | 1015.3 |
| 20260508150044 | 69 | 186 | 0.0 | 3.5 | 0.00 | 0.01 | 0.01 | 64 | 1015.3 |
| 20260508145530 | 69 | 0 | 0.0 | 3.5 | 0.00 | 0.01 | 0.01 | 64 | 1015.3 |
| 20260508145028 | 69 | 85 | 0.0 | 3.5 | 0.00 | 0.01 | 0.01 | 64 | 1015.3 |
| 20260508144550 | 69 | 0 | 0.0 | 2.6 | 0.00 | 0.01 | 0.01 | 65 | 1015.4 |
| 20260508144027 | 69 | 131 | 0.0 | 2.6 | 0.00 | 0.01 | 0.01 | 65 | 1015.5 |
| 20260508143527 | 69 | 0 | 0.0 | 2.6 | 0.00 | 0.01 | 0.01 | 66 | 1015.5 |
| 20260508143049 | 68 | 0 | 0.0 | 2.6 | 0.00 | 0.01 | 0.01 | 66 | 1015.3 |
| 20260508142527 | 68 | 104 | 0.0 | 2.6 | 0.00 | 0.01 | 0.01 | 66 | 1015.5 |
| 20260508142027 | 68 | 0 | 0.9 | 5.2 | 0.00 | 0.01 | 0.01 | 65 | 1015.5 |
| 20260508141545 | 69 | 0 | 0.0 | 5.2 | 0.00 | 0.01 | 0.01 | 66 | 1015.5 |
| 20260508141027 | 69 | 156 | 0.0 | 3.5 | 0.00 | 0.01 | 0.01 | 63 | 1015.5 |
| 20260508140528 | 69 | 124 | 0.0 | 1.7 | 0.00 | 0.01 | 0.01 | 65 | 1015.6 |
| 20260508140038 | 69 | 0 | 0.0 | 3.5 | 0.00 | 0.01 | 0.01 | 66 | 1015.6 |
| 20260508135528 | 69 | 184 | 0.0 | 3.5 | 0.00 | 0.01 | 0.01 | 65 | 1015.6 |
| 20260508135028 | 69 | 0 | 0.0 | 1.7 | 0.00 | 0.01 | 0.01 | 65 | 1015.6 |
| 20260508134544 | 69 | 171 | 0.0 | 1.7 | 0.00 | 0.01 | 0.01 | 68 | 1015.5 |
| 20260508134027 | 68 | 0 | 0.0 | 1.7 | 0.00 | 0.01 | 0.01 | 70 | 1015.4 |
| 20260508133531 | 67 | 0 | 0.0 | 0.0 | 0.00 | 0.01 | 0.01 | 73 | 1015.4 |
| 20260508133041 | 66 | 0 | 0.0 | 0.0 | 0.00 | 0.01 | 0.01 | 74 | 1015.4 |
| 20260508132530 | 66 | 0 | 0.0 | 0.0 | 0.00 | 0.01 | 0.01 | 75 | 1015.5 |
| 20260508132031 | 65 | 0 | 0.0 | 0.0 | 0.00 | 0.01 | 0.01 | 77 | 1015.4 |
| 20260508131555 | 64 | 0 | 0.0 | 0.0 | 0.00 | 0.01 | 0.01 | 81 | 1015.5 |
| 20260508131028 | 63 | 0 | 0.0 | 0.0 | 0.00 | 0.01 | 0.01 | 80 | 1015.5 |
| 20260508130530 | 63 | 0 | 0.0 | 0.0 | 0.00 | 0.01 | 0.01 | 81 | 1015.8 |
| 20260508130043 | 63 | 0 | 0.0 | 0.0 | 0.00 | 0.01 | 0.01 | 82 | 1015.6 |
| 20260508125530 | 63 | 0 | 0.0 | 0.0 | 0.00 | 0.01 | 0.01 | 83 | 1015.4 |
| 20260508125030 | 63 | 0 | 0.0 | 0.0 | 0.00 | 0.01 | 0.01 | 83 | 1015.6 |
| 20260508124549 | 62 | 0 | 0.0 | 0.0 | 0.00 | 0.01 | 0.01 | 83 | 1015.8 |